Weather History for KNYG - October, 2012

Change the Weather History Date:

Monday, October 15, 2012

  Actual Average Record
Temperature  
Mean Temperature 62 °F -  
Max Temperature 71 °F 65 °F 79 °F (2005)
Min Temperature 55 °F 46 °F 34 °F (2006)
Degree Days  
Heating Degree Days 2    
Growing Degree Days 12 (Base 50)    
Moisture  
Dew Point 57 °F    
Average Humidity 74    
Maximum Humidity 86    
Minimum Humidity 65    
Precipitation  
Precipitation 0.03 in - - ()
Sea Level Pressure  
Sea Level Pressure 29.80 in    
Wind  
Wind Speed 10 mph (WSW)    
Max Wind Speed 16 mph    
Max Gust Speed 23 mph    
Visibility 10 miles    
Events Rain , Thunderstorm    
Averages and records for this station are not official NWS values.
T = Trace of Precipitation, MM = Missing Value Source: NWS Daily Summary

Daily Weather History Graph

Daily Weather History Graph

Search for Another Location

Airport or City:

Trip Planner

Search our weather history database for the weather conditions in past years. The results will help you decide how hot, cold, wet, or windy it might be!

Date:

Astronomy

Oct. 15, 2012 Rise Set
Actual Time 7:18 AM EDT 6:30 PM EDT
Civil Twilight 6:51 AM EDT 6:57 PM EDT
Nautical Twilight 6:21 AM EDT 7:27 PM EDT
Astronomical Twilight 5:50 AM EDT 7:58 PM EDT
Moon 7:25 AM EDT (10/15) 6:29 PM EDT (10/15)
Length of Visible Light 12h 05m
Length of Day
11h 11m
New Moon, 0% of the Moon is Illuminated
Oct 15
New Moon
Oct 21
First Quarter
Oct 29
Full
Nov 6
Last Quarter
Nov 13
New

Hourly Weather History & Observations

Time (EDT) Temp. Dew Point Humidity Pressure Visibility Wind Dir Wind Speed Gust Speed Precip Events Conditions
12:56 AM 66.0 °F 57.9 °F 75% 29.95 in 10.0 mi SSW 9.2 mph - N/A   Mostly Cloudy
1:56 AM 64.9 °F 57.9 °F 78% 29.93 in 10.0 mi SW 8.1 mph - N/A   Clear
2:56 AM 66.0 °F 57.9 °F 75% 29.91 in 10.0 mi SSW 10.4 mph - N/A   Clear
3:56 AM 68.0 °F 55.9 °F 65% 29.88 in 10.0 mi SW 13.8 mph - N/A   Clear
4:56 AM 68.0 °F 55.9 °F 65% 29.86 in 10.0 mi SW 12.7 mph 20.7 mph N/A   Mostly Cloudy
5:56 AM 68.0 °F 55.9 °F 65% 29.84 in 10.0 mi SW 15.0 mph 23.0 mph N/A   Clear
6:56 AM 68.0 °F 55.9 °F 65% 29.83 in 10.0 mi SW 15.0 mph - N/A   Overcast
7:56 AM 66.9 °F 55.9 °F 68% 29.82 in 10.0 mi SW 16.1 mph - N/A   Mostly Cloudy
8:56 AM 68.0 °F 57.0 °F 68% 29.82 in 10.0 mi WSW 11.5 mph - N/A   Mostly Cloudy
9:56 AM 68.0 °F 59.0 °F 73% 29.82 in 10.0 mi SW 10.4 mph 19.6 mph N/A   Mostly Cloudy
10:56 AM 69.1 °F 60.1 °F 73% 29.81 in 10.0 mi SW 9.2 mph - 0.00 in   Overcast
11:52 AM 69.8 °F 60.8 °F 73% 29.78 in 10.0 mi SW 6.9 mph - N/A   Overcast
11:56 AM 70.0 °F 60.1 °F 71% 29.79 in 10.0 mi WSW 8.1 mph - N/A   Overcast
12:56 PM 70.0 °F 60.1 °F 71% 29.77 in 10.0 mi SW 8.1 mph - 0.00 in Rain Light Rain
1:03 PM 69.8 °F 60.8 °F 73% 29.77 in 10.0 mi SW 9.2 mph 17.3 mph 0.00 in Rain Light Rain
1:56 PM 68.0 °F 62.1 °F 81% 29.74 in 6.0 mi WSW 8.1 mph - 0.01 in Rain Light Rain
2:56 PM 68.0 °F 61.0 °F 78% 29.73 in 7.0 mi SW 11.5 mph - 0.00 in   Mostly Cloudy
3:56 PM 69.1 °F 60.1 °F 73% 29.70 in 10.0 mi SW 10.4 mph - N/A   Overcast
4:56 PM 68.0 °F 61.0 °F 78% 29.68 in 10.0 mi SSW 6.9 mph - N/A   Mostly Cloudy
5:56 PM 68.0 °F 60.1 °F 76% 29.70 in 10.0 mi Calm Calm - N/A   Scattered Clouds
6:56 PM 61.0 °F 55.0 °F 81% 29.74 in 6.0 mi NE 9.2 mph - 0.00 in Rain Light Rain
7:56 PM 61.0 °F 55.9 °F 83% 29.75 in 10.0 mi NE 3.5 mph - 0.01 in Rain Light Rain
8:05 PM 60.8 °F 55.4 °F 82% 29.74 in 10.0 mi NNE 3.5 mph - 0.00 in Rain , Thunderstorm Light Thunderstorms and Rain
8:21 PM 60.8 °F 55.4 °F 82% 29.75 in 9.0 mi Calm Calm - 0.00 in Rain Light Rain
8:56 PM 60.1 °F 55.9 °F 86% 29.79 in 10.0 mi NNW 5.8 mph - 0.00 in   Clear
9:56 PM 59.0 °F 50.0 °F 72% 29.80 in 10.0 mi North 11.5 mph 19.6 mph 0.01 in   Clear
10:56 PM 55.9 °F 48.0 °F 75% 29.83 in 10.0 mi NNW 9.2 mph - N/A   Clear
11:56 PM 55.9 °F 45.0 °F 67% 29.85 in 10.0 mi NNW 8.1 mph - N/A   Clear